Weather History for KFXE - October, 2011

Change the Weather History Date:

Wednesday, October 5, 2011

  Actual Average Record
Temperature  
Mean Temperature 80 °F -  
Max Temperature 87 °F 89 °F 95 °F (1986)
Min Temperature 73 °F 72 °F 66 °F (2014)
Cooling Degree Days 15    
Growing Degree Days 30 (Base 50)    
Moisture  
Dew Point 64 °F    
Average Humidity 59    
Maximum Humidity 79    
Minimum Humidity 48    
Precipitation  
Precipitation 0.00 in - - ()
Sea Level Pressure  
Sea Level Pressure 30.04 in    
Wind  
Wind Speed 8 mph (NE)    
Max Wind Speed 20 mph    
Max Gust Speed 24 mph    
Visibility 10 miles    
Events      
Averages and records for this station are not official NWS values.
T = Trace of Precipitation, MM = Missing Value Source: NWS Daily Summary

Daily Weather History Graph

Daily Weather History Graph

Search for Another Location

Airport or City:

Trip Planner

Search our weather history database for the weather conditions in past years. The results will help you decide how hot, cold, wet, or windy it might be!

Date:

Astronomy

Oct. 05, 2011 Rise Set
Actual Time 7:14 AM EDT 7:03 PM EDT
Civil Twilight 6:51 AM EDT 7:26 PM EDT
Nautical Twilight 6:24 AM EDT 7:52 PM EDT
Astronomical Twilight 5:58 AM EDT 8:19 PM EDT
Moon 3:11 PM EDT (10/5) 1:33 AM EDT (10/5)
Length of Visible Light 12h 34m
Length of Day
11h 48m
Waxing Gibbous, 66% of the Moon is Illuminated
Oct 5
Waxing Gibbous
Oct 11
Full
Oct 19
Last Quarter
Oct 26
New
Nov 2
First Quarter

Hourly Weather History & Observations

Time (EDT) Temp. Heat Index Dew Point Humidity Pressure Visibility Wind Dir Wind Speed Gust Speed Precip Events Conditions
12:53 AM 80.1 °F 81.5 °F 63.0 °F 56% 30.07 in 10.0 mi NE 5.8 mph - N/A   Clear
1:53 AM 79.0 °F - 62.1 °F 56% 30.06 in 10.0 mi NE 8.1 mph - N/A   Clear
2:53 AM 78.1 °F - 61.0 °F 56% 30.04 in 10.0 mi NE 4.6 mph - N/A   Clear
3:53 AM 77.0 °F - 61.0 °F 58% 30.03 in 10.0 mi NE 4.6 mph - N/A   Clear
4:53 AM 77.0 °F - 63.0 °F 62% 30.02 in 10.0 mi Calm Calm - N/A   Clear
5:53 AM 73.9 °F - 64.9 °F 73% 30.02 in 10.0 mi NNW 3.5 mph - N/A   Clear
6:53 AM 73.0 °F - 64.9 °F 76% 30.04 in 10.0 mi NNW 3.5 mph - N/A   Scattered Clouds
7:53 AM 73.9 °F - 66.9 °F 79% 30.05 in 10.0 mi Calm Calm - N/A   Scattered Clouds
8:53 AM 78.1 °F - 69.1 °F 74% 30.06 in 10.0 mi Variable 6.9 mph - 0.00 in   Mostly Cloudy
9:53 AM 82.0 °F 84.5 °F 66.9 °F 60% 30.07 in 10.0 mi ENE 11.5 mph - N/A   Mostly Cloudy
10:53 AM 82.4 °F 84.6 °F 66.2 °F 58% 30.07 in 10.0 mi NE 18.4 mph 24.2 mph N/A   Scattered Clouds
11:53 AM 86.0 °F 88.2 °F 66.0 °F 51% 30.07 in 10.0 mi ENE 16.1 mph 23.0 mph N/A   Scattered Clouds
12:53 PM 87.1 °F 89.2 °F 66.0 °F 49% 30.07 in 10.0 mi ENE 15.0 mph 23.0 mph N/A   Scattered Clouds
2:53 PM 84.2 °F 85.0 °F 62.6 °F 48% 30.02 in 10.0 mi ENE 19.6 mph 23.0 mph N/A   Scattered Clouds
4:53 PM 82.4 °F 83.4 °F 62.6 °F 51% 29.99 in 10.0 mi ENE 13.8 mph 23.0 mph N/A   Scattered Clouds
5:53 PM 82.4 °F 83.4 °F 62.6 °F 51% 30.00 in 10.0 mi NE 11.5 mph - N/A   Scattered Clouds
6:53 PM 80.6 °F 82.3 °F 64.4 °F 58% 30.01 in 10.0 mi NE 12.7 mph 20.7 mph N/A   Scattered Clouds
7:53 PM 80.1 °F 81.2 °F 62.1 °F 54% 30.02 in 10.0 mi ENE 11.5 mph - N/A   Clear
9:53 PM 80.1 °F 81.5 °F 63.0 °F 56% 30.04 in 10.0 mi NE 12.7 mph 18.4 mph N/A   Scattered Clouds
10:53 PM 79.0 °F - 64.9 °F 62% 30.04 in 10.0 mi ENE 9.2 mph - N/A   Scattered Clouds
11:53 PM 80.1 °F 81.5 °F 63.0 °F 56% 30.04 in 10.0 mi NE 11.5 mph 18.4 mph N/A   Overcast